Orbital Elements at Epoch 2459200.5 (2020-Dec-17.0) TDB
Reference: JPL 24 (heliocentric ecliptic J2000)
Element | Value | Uncertainty (1-sigma) | Units |
e | .06534839675387275 | 4.2625e-08 | |
a | 2.743744041676593 | 1.3829e-08 | au |
q | 2.564444767450036 | 1.1901e-07 | au |
i | 9.795041128727934 | 3.8207e-06 | deg |
node | 57.16697113573712 | 2.5148e-05 | deg |
peri | 95.74321171911079 | 4.0196e-05 | deg |
M | 333.0845763567887 | 3.003e-05 | deg |
tp | 2459324.611646670147 (2021-Apr-20.11164667) | 0.00013839 | TDB |
period | 1660.021903928765 4.54 | 1.255e-05 3.436e-08 | d yr |
n | .2168646083211251 | 1.6396e-09 | deg/d |
Q | 2.923043315903149 | 1.4733e-08 | au |
|
| | Orbit Determination Parameters
Additional Information
|